Regional Weather Roundup
Issued by NWS

Home | Current Version | Previous Version | Text Only | Print | Product List | Glossary Off
Versions: 1 2 3 4 5 6 7 8 9 10 11 12 13 14 15 16 17 18 19 20 21 22 23 24 25 26 27 28 29 30 31 32 33 34 35 36 37 38 39 40 41 42 43 44 45 46 47 48 49 50

000
ASUS43 KMPX 291601
RWRMN
WEATHER ROUNDUP FOR MINNESOTA
NATIONAL WEATHER SERVICE TWIN CITIES/CHANHASSEN MN
1100 AM CDT MON AUG 29 2016


NOTE: "FAIR" INDICATES FEW OR NO CLOUDS BELOW 12,000 FEET WITH NO
SIGNIFICANT WEATHER AND/OR OBSTRUCTIONS TO VISIBILITY. N/A MEANS
CURRENT SKY AND/OR WEATHER CONDITIONS ARE NOT AVAILABLE.

MNZ060>063-068>070-291700-
   Twin Cities Metro

CITY           SKY/WX    TMP DP  RH WIND       PRES   REMARKS
TWIN CITIES    CLOUDY    78  69  73 E9        30.22F
ST PAUL        MOSUNNY   78  69  73 SE8       30.23F
CRYSTAL        SUNNY     79  67  66 SE15      30.19F
BLAINE         PTSUNNY   81  72  74 SE14      30.21F
LAKEVILLE      CLOUDY    73  70  88 E3        30.25S
EDEN PRAIRIE   CLOUDY    79  68  69 E10       30.22F
LAKEVILLE      CLOUDY    73  70  88 E3        30.25S
SOUTH ST PAUL  MOSUNNY   77  69  74 E7        30.23F
LAKE ELMO      FAIR      77  70  78 SE7       30.24F
$$
MNZ001>005-007-008-013>017-022>024-027-028-291700-
   Northwest Minnesota

CITY           SKY/WX    TMP DP  RH WIND       PRES   REMARKS
BEMIDJI        SUNNY     74  65  75 SW8       30.14S
HALLOCK        PTSUNNY   70  63  78 NW12      30.15R
ROSEAU         SUNNY     72  66  83 W12       30.12R
THIEF RVR FALL CLOUDY    70  66  87 W9        30.16R
CROOKSTON      PTSUNNY   72  66  83 NW9       30.16R
FOSSTON        SUNNY     73  66  78 SW13      30.15S
DETROIT LAKES  SUNNY     75  64  69 SW10      30.16R
MOORHEAD       PTSUNNY   75  70  83 SW8       30.15R
PARK RAPIDS    SUNNY     74  65  73 SW9       30.14R
MAHNOMEN       PTSUNNY   72  65  79 SW9       30.15R
$$
MNZ006-009>011-018-025>026-291700-
   North Central Minnesota

CITY           SKY/WX    TMP DP  RH WIND       PRES   REMARKS
BAUDETTE       CLOUDY    71  66  84 SW9       30.10R
FLAG ISLAND    CLOUDY    66  63  88 W5        30.10R
INTL FALLS     PTSUNNY   69  63  81 SW8       30.11R
WASKISH        SUNNY     72  66  83 W7        30.13S
BIG FORK       CLOUDY    70  64  83 SW7       30.14S
LONGVILLE      CLOUDY    70  64  83 S7        30.13R
GRAND RAPIDS   CLOUDY    68  63  84 VRB3      30.15S
ORR            CLOUDY    70  61  73 CALM      30.10S
COOK           CLOUDY    70  63  78 SW7       30.13S
WALKER         FAIR      72  64  77 W8        30.14R
$$
MNZ012-019>021-037-291700-
   Northeast Minnesota

CITY           SKY/WX    TMP DP  RH WIND       PRES   REMARKS
DULUTH         CLOUDY    70  63  78 W6        30.15R
ELY            CLOUDY    70  63  78 SW7       30.13F
HIBBING        CLOUDY    66  62  87 CALM      30.13F
EVELETH        CLOUDY    68  62  82 SW7       30.14F
DULUTH HARBOR  CLOUDY    70  64  83 CALM      30.14R
TWO HARBORS    CLOUDY    73  66  78 SW6       30.11S
SILVER BAY     CLOUDY    73  64  73 CALM      30.10S
GRAND MARAIS     N/A     67  64  90 SW12      30.13R
G MARAIS ARPRT MOSUNNY   70  61  73 SW3       30.17R
$$
MNZ029>031-032-039>041-046>048-054>057-064-291700-
   West Central Minnesota

CITY           SKY/WX    TMP DP  RH WIND       PRES   REMARKS
FERGUS FALLS   SUNNY     79  68  69 SW13      30.14S
WHEATON        SUNNY     81  72  74 S15       30.16R
ALEXANDRIA     SUNNY     72  64  76 S12       30.17S
ELBOW LAKE     FAIR      78  68  72 S10       30.15R
WADENA         SUNNY     73  64  73 SW10      30.14S
GLENWOOD       CLOUDY    75  66  73 SE13G20   30.17R
APPLETON       LGT RAIN  75  66  73 SE13G20   30.15S
BENSON         CLOUDY    79  66  65 S17G23    30.15R
ORTONVILLE     MOSUNNY   77  68  73 SE12G23   30.15F
MADISON        SUNNY     77  68  73 SE13      30.17F
WILLMAR        FAIR      75  70  83 SE17G28   30.18F
$$
MNZ033>034-036-042>043-049>051-058-059-291700-
   Central Minnesota

CITY           SKY/WX    TMP DP  RH WIND       PRES   REMARKS
ST CLOUD       CLOUDY    77  67  71 SE17G26   30.12F
SAUK CENTRE    FAIR      74  66  75 SE13G21   30.16R
PAYNESVILLE    PTSUNNY   76  67  72 SE14G24   30.16F
AITKIN         CLOUDY    72  63  73 SW3       30.12F
PINE RIVER     CLOUDY    70  63  78 SW5       30.15F
BRAINERD       PTSUNNY   68  64  87 SW10      30.13F
STAPLES        MOSUNNY   70  63  78 S7        30.14F
LONG PRAIRIE   FAIR      70  64  83 SE9       30.16S
LITTLE FALLS   CLOUDY    68  61  77 S6        30.14F
LITCHFIELD     SUNNY     75  72  88 SE14G21   30.19F
BUFFALO        SUNNY     76  68  76 SE17      30.19F
MAPLE LAKE     SUNNY     78  72  80 SE12G17   30.18F
HUTCHINSON     MOSUNNY   76  71  84 E14G20    30.22F
$$
MNZ037-044-045-052-053-291700-
   East Central Minnesota

CITY           SKY/WX    TMP DP  RH WIND       PRES   REMARKS
PRINCETON      MOSUNNY   81  66  61 SE17G23   30.13F
MORA           CLOUDY    70  64  83 S15       30.12F
CAMBRIDGE      CLOUDY    81  64  57 S14G23    30.12F
RUSH CITY      RAIN      75  66  73 S12       30.11F
MOOSE LAKE     CLOUDY    70  61  73 CALM      30.12F
HINCKLEY       FAIR      72  66  83 S3        30.11F
CLOQUET        CLOUDY    66  63  88 CALM      30.14S
MCGREGOR       PTSUNNY   70  63  78 S5        30.14F
$$
MNZ071>073-080-081-089-090-097-098-291700-
   Southwest Minnesota

CITY           SKY/WX    TMP DP  RH WIND       PRES   REMARKS
MONTEVIDEO     SUNNY     77  70  78 S15G25    30.19F
GRANITE FALLS  SUNNY     77  68  74 E9G20     30.21S
CANBY          PTSUNNY   75  68  77 E14       30.21R
MARSHALL       MOSUNNY   74  68  81 E14       30.22R
REDWOOD FALLS  MOSUNNY   76  66  71 SE9       30.20F
OLIVIA         MOSUNNY   75  68  78 SE13      30.20F
PIPESTONE      CLOUDY    75  68  78 E5        30.23R
WINDOM         PTSUNNY   77  66  69 CALM      30.23R
JACKSON          N/A     77  66  69 S5        30.24S
TRACY          PTSUNNY   75  69  80 E9        30.23S
SLAYTON        MOSUNNY   75  68  78 CALM      30.23R
$$
MNZ065>067-074>077-082>085-091>093-291700-
   South Central Minnesota

CITY           SKY/WX    TMP DP  RH WIND       PRES   REMARKS
MANKATO          N/A    N/A N/A N/A MISG        N/A
NEW ULM          N/A     73  68  83 SE7       30.22F
ST JAMES       CLOUDY    70  64  83 CALM      30.23S
FAIRMONT       PTSUNNY   77  71  82 SE6       30.24R
GLENCOE        CLOUDY    77  71  81 E12       30.22F
FARIBAULT      MOSUNNY   79  70  73 CALM      30.25S
OWATONNA       PTSUNNY   73  70  88 CALM      30.25S FOG
WASECA         CLOUDY    72  70  94 SE5       30.26S FOG
ALBERT LEA     CLOUDY    73  72  94 CALM      30.26R FOG
$$
MNZ078>079-086>088-094>096-291700-
   Southeast Minnesota

CITY           SKY/WX    TMP DP  RH WIND       PRES   REMARKS
ROCHESTER      MOSUNNY   79  72  79 VRB5      30.27S
RED WING       CLOUDY    75  70  83 S6        30.24S
DODGE CENTER   PTSUNNY   79  72  78 CALM      30.26S
WINONA         PTSUNNY   77  68  73 N6        30.25R
AUSTIN         PTSUNNY   75  70  83 S3        30.26R
PRESTON        PTSUNNY   77  69  77 CALM      30.28R
$$
ABBREVIATIONS USED IN REMARKS
   TC - TEMPERATURES IN CELSIUS
  WCI - WIND CHILL INDEX
   HX - HEAT INDEX
  VSB - VISIBILITY
$$




USA.gov is the U.S. government's official web portal to all federal, state and local government web resources and services.